Location: Kampung Segan
(3.1399°N, 113.1002°E)
Time: 14:37:19
(UTC+00:00)

NOSS 3-1 (C) - Pass Details

Date: 05 August 2024
Orbit: 651 x 1554 km, 63.4° (Epoch: 18 August)

Event Time Altitude Azimuth Distance (km) Brightness Sun altitude
Rises 19:44:32 0° 337° (NNW) 4,430 6.9 -38.9°
Reaches altitude 10° 19:47:19 10° 337° (NNW) 3,542 6.4 -38.2°
Enters shadow 19:52:19 40° 337° (NNW) 2,102 5.1 -37.1°
Exits shadow 19:55:57 83° 332° (NNW) 1,551 4.3 -36.3°
Maximum altitude 19:56:24 89° 251° (WSW) 1,545 4.3 -36.2°
Drops below altitude 10° 20:05:56 10° 158° (SSE) 3,703 6.5 -34.0°
Sets 20:08:54 0° 158° (SSE) 4,638 7.0 -33.3°
